Regional Weather Roundup
Issued by NWS

Home | Current Version | Previous Version | Graphics & Text | Print | Product List | Glossary On
Versions: 1 2 3 4 5 6 7 8 9 10 11 12 13 14 15 16 17 18 19 20 21 22 23 24 25 26 27 28 29 30 31 32 33 34 35 36 37 38 39 40 41 42 43 44 45 46 47 48 49 50
000
ASUS43 KLSX 312307
RWRMO

WEATHER SUMMARY FOR MISSOURI
NATIONAL WEATHER SERVICE SPRINGFIELD MO
600 PM CDT MON AUG 31 2015

NOTE: "FAIR" INDICATES FEW OR NO CLOUDS BELOW 12,000 FEET WITH NO
       SIGNIFICANT WEATHER AND/OR OBSTRUCTIONS TO VISIBILITY.
       CURRENT SKY AND/OR WEATHER CONDITIONS ARE NOT AVAILABLE FOR
       CHILLICOTHE AND FARMINGTON.

MOZ001>031-035>038-043-044-053-054-010000-
...NORTHERN AND WESTERN MISSOURI...

CITY           SKY/WX    TMP DP  RH WIND       PRES   REMARKS
KANSAS CTY INT MOSUNNY   88  69  53 S12       29.94S HX  92
KANSAS C DTWN  SUNNY     90  69  50 S10       29.93S HX  94
LEE`S SUMMIT   MOSUNNY   87  68  52 S12       29.96S HX  90
ST JOSEPH      SUNNY     87  70  56 S9        29.92S HX  92
CHILLICOTHE      N/A     89  71  55 S3        29.96R HX  95
KIRKSVILLE     SUNNY     86  70  58 S7        29.97S HX  90

$$
MOZ066>068-077>081-088>096-101>105-010000-
...SOUTHWEST MISSOURI...

CITY           SKY/WX    TMP DP  RH WIND       PRES   REMARKS
SPRINGFIELD    SUNNY     87  67  51 S12       30.02R HX  90
JOPLIN         SUNNY     87  68  52 S9        29.99S HX  90

$$
MOZ032>034-039>042-045>050-055>058-069>072-010000-
...CENTRAL MISSOURI...

CITY           SKY/WX    TMP DP  RH WIND       PRES   REMARKS
COLUMBIA       SUNNY     88  69  53 S8        29.99R HX  92
JEFFERSON CITY SUNNY     91  68  46 S7        29.97R HX  95
ROLLA          SUNNY     87  69  54 S9        30.02R HX  91
SEDALIA        SUNNY     90  68  48 SW8       29.99R HX  94
WHITEMAN AFB   MOSUNNY   90  69  51 SW12      29.96R HX  94
WARRENSBURG    SUNNY     88  68  51 S7        29.96R HX  91
OSAGE BEACH    SUNNY     90  66  45 S8        30.01R HX  92

$$
MOZ051-052-059>065-010000-
...EAST CENTRAL MISSOURI...

CITY           SKY/WX    TMP DP  RH WIND       PRES   REMARKS
ST LOUIS INTL  PTSUNNY   83  71  67 SE13      30.02R
SPIRIT OF STL  PTSUNNY   85  74  69 SE5       29.99R HX  92
ST CHARLES     PTSUNNY   85  73  67 SE9       29.99S HX  91

$$
MOZ072>076-082>087-097>100-106>115-010000-
...SOUTH CENTRAL AND SOUTHEAST MISSOURI...

CITY           SKY/WX    TMP DP  RH WIND       PRES   REMARKS
CAPE GIRARDEAU MOSUNNY   82  72  71 S5        30.04S
FARMINGTON     SUNNY     84  73  70 S8        30.07S HX  91
POPLAR BLUFF   SUNNY     86  72  62 SE7       30.03R HX  92
WEST PLAINS    SUNNY     86  66  51 VRB6      30.06F

$$



USA.gov is the U.S. government's official web portal to all federal, state and local government web resources and services.